Вернуться в каталог

STARLINK-34199

АктивенСвязьVLEO
NORAD 64924·PAYLOAD·🇺🇸 United States

Запущен Jul 26, 2025 с Cape Canaveral Space Force Station

Loading…

Ближайшие Пролёты (ближайшие 24 часа)

TLE

СвежийSource: CelesTrak SupGP

Эпоха: Sep 14, 2026, 21:32 UTC

1 64924C 25157W   26257.89770833 -.00002476  00000+0 -79583-4 0  2575
2 64924  53.1577 185.0983 0001331  90.6058  14.7930 15.31712580    13

Отслеживайте STARLINK-34199 в реальном времени с AllMySat

Download on the App Store